Regional Weather Roundup
Issued by NWS Goodland, KS

Home | Current Version | Previous Version | Graphics & Text | Print | Product List | Glossary On
Versions: 1 2 3 4 5 6 7 8 9 10 11 12 13 14 15 16 17 18 19 20 21 22 23 24 25 26 27 28 29 30 31 32 33 34 35 36 37 38 39 40 41 42 43 44 45 46 47 48 49 50
000
ASUS43 KGLD 271708
RWRGLD

GOODLAND FORECAST AREA HOURLY WEATHER ROUNDUP
NATIONAL WEATHER SERVICE GOODLAND KS
1000 AM MST FRI FEB 27 2015

...OFFICIAL OBSERVATIONS...

CITY           SKY/WX    TMP DP  RH WIND       PRES   REMARKS
GOODLAND KS    LGT SNOW  15   8  73 S18       30.27F WCI  -2
HILL CITY KS   CLOUDY    15   0  51 SE9G18    30.47F
IMPERIAL NEB   CLOUDY    16   6  65 SE16      30.29F WCI   1
MCCOOK NEB     CLOUDY    18   1  47 SE16      30.41F WCI   3
AKRON CO       LGT SNOW  12   7  80 S20G28    30.11F WCI  -6
BURLINGTON CO  CLOUDY    13   6  74 S21       30.20F HAZE    WCI  -5
LIMON CO       LGT SNOW   8   5  87 S28       30.06F VSB 3/4 WCI -14
$$

...UNOFFICIAL OBSERVATIONS...

CITY           SKY/WX    TMP DP  RH WIND       PRES   REMARKS
COLBY KS       LGT SNOW  16  12  86 SE16      30.35S WCI   0
GOVE KS          N/A     15  32 100 MISG        N/A
LENORA KS        N/A     13  32 100 S12         N/A  WCI  -1
NORTON KS      CLOUDY    16  -2  45 SE6       30.44F
SHARON SPRINGS   N/A     15  11  82 S14G21      N/A  WCI   0
KIT CARSON CO    N/A     11   8  85 MISG        N/A
YUMA CO          N/A     14   7  73 SE15G22     N/A  WCI  -1
$$


USA.gov is the U.S. government's official web portal to all federal, state and local government web resources and services.